Regional Weather Roundup
Issued by NWS

Home | Current Version | Previous Version | Text Only | Print | Product List | Glossary On
Versions: 1 2 3 4 5 6 7 8 9 10 11 12 13 14 15 16 17 18 19 20 21 22 23 24 25 26 27 28 29 30 31 32 33 34 35 36 37 38 39 40 41 42 43 44 45 46 47 48 49 50
000
ASUS43 KDTX 300601
RWRMI
MICHIGAN HOURLY REGIONAL WEATHER ROUNDUP
NATIONAL WEATHER SERVICE DETROIT/PONTIAC MI
200 AM EDT THU MAR 30 2017

NOTE: "FAIR" INDICATES FEW OR NO CLOUDS BELOW 12,000 FEET WITH NO
SIGNIFICANT WEATHER AND/OR OBSTRUCTION TO VISIBILITY.

MIZ047>049-052>055-059>063-066>070-074>076-081>083-300700-
SOUTHEAST LOWER MICHIGAN

CITY           SKY/WX    TMP DP  RH WIND       PRES   REMARKS
ADRIAN         CLOUDY    41  32  70 E20       30.12F
6HR MIN TEMP:  41; 6HR MAX TEMP:  47; 6HR PCP: TRACE;

ALMA           CLOUDY    35  31  85 NE12G17   30.19F WCI  27
ANN ARBOR      CLOUDY    40  33  76 NE9       30.15F WCI  34
BAD AXE        CLOUDY    36  27  71 NE9       30.23F WCI  29
6HR MIN TEMP:  34; 6HR MAX TEMP:  36;

CARO           CLOUDY    36  29  75 NE6       30.21F WCI  31
DETROIT CITY   CLOUDY    39  34  82 N7        30.20S WCI  34
6HR MIN TEMP:  38; 6HR MAX TEMP:  44; 6HR PCP:  0.01;

DETROIT        CLOUDY    40  33  76 NE10      30.17F WCI  33
6HR MIN TEMP:  40; 6HR MAX TEMP:  48; 6HR PCP: TRACE;

FLINT          CLOUDY    37  28  70 E9        30.21F WCI  30
6HR MIN TEMP:  37; 6HR MAX TEMP:  44;

GROSSE ILE     CLOUDY    40  34  79 NE10      30.17R WCI  34
6HR MIN TEMP:  40; 6HR MAX TEMP:  46; 6HR PCP:  0.01;

HILLSDALE      CLOUDY    41  32  70 E10G18    30.10R
HOWELL         CLOUDY    37  32  81 NE8       30.16F WCI  31
6HR MIN TEMP:  37; 6HR MAX TEMP:  47;


CITY           SKY/WX    TMP DP  RH WIND       PRES   REMARKS
JACKSON        CLOUDY    40  33  76 E12       30.12F WCI  33
6HR MIN TEMP:  40; 6HR MAX TEMP:  49; 6HR PCP:  0.03;

LAMBERTVILLE   CLOUDY    44  33  66 E9        30.13F
6HR MIN TEMP:  44; 6HR MAX TEMP:  48;

LANSING        CLOUDY    37  32  82 NE13      30.17F WCI  29
6HR MIN TEMP:  37; 6HR MAX TEMP:  44; 6HR PCP:  0.04;

LAPEER         CLOUDY    37  30  76 NE5       30.21S WCI  33
6HR MIN TEMP:  37; 6HR MAX TEMP:  42;

MASON          CLOUDY    38  34  84 NE10      30.15S WCI  31
MONROE         CLOUDY    41  34  76 NE9       30.14F
6HR MIN TEMP:  41; 6HR MAX TEMP:  46;

MT. CLEMENS    CLOUDY    39  33  78 N5        30.20R
6HR MIN TEMP:  38; 6HR MAX TEMP:  42;

PONTIAC        LGT RAIN  37  30  75 N7        30.19R WCI  32
6HR MIN TEMP:  37; 6HR MAX TEMP:  46; 6HR PCP: TRACE;

PORT HOPE        N/A     36  30  79 E13       30.24S WCI  27
6HR MIN TEMP:  35; 6HR MAX TEMP:  36;

PORT HURON     CLOUDY    37  32  81 CALM      30.21S
TRI CITIES     CLOUDY    37  31  78 NE10      30.21F WCI  30
6HR MIN TEMP:  36; 6HR MAX TEMP:  37;

MIDLAND        CLOUDY    37  28  72 NE9       30.21F WCI  30
6HR MIN TEMP:  35; 6HR MAX TEMP:  37;

TROY           CLOUDY    39  29  68 NE7       30.22R WCI  34
SAGINAW HB     CLOUDY    36  28  75 NE10      30.21F WCI  28
$$
MIZ043>046-050>051-056>058-064>065-071>073-077>080-300700-
SOUTHWEST LOWER MICHIGAN

CITY           SKY/WX    TMP DP  RH WIND       PRES   REMARKS
BATTLE CREEK   CLOUDY    42  38  85 E9        30.10F
6HR MIN TEMP:  42; 6HR MAX TEMP:  51; 6HR PCP:  0.04;

BENTON HARBOR  CLOUDY    45  38  76 E15G22    30.02F
6HR MIN TEMP:  45; 6HR MAX TEMP:  53; 6HR PCP:  0.04;

BIG RAPIDS     CLOUDY    35  23  60 E7        30.18F WCI  30
6HR MIN TEMP:  35; 6HR MAX TEMP:  42;

COLDWATER      CLOUDY    44  32  62 E13       30.08F
6HR MIN TEMP:  44; 6HR MAX TEMP:  51;

FREMONT        CLOUDY    37  24  60 E13G18    30.14F WCI  28
HOLLAND        LGT RAIN  39  34  82 E16G24    30.09F WCI  30
6HR MIN TEMP:  39; 6HR MAX TEMP:  51; 6HR PCP:  0.08;

GRAND RAPIDS   CLOUDY    36  35  96 E16       30.12F WCI  26
6HR MIN TEMP:  36; 6HR MAX TEMP:  46; 6HR PCP:  0.08;

IONIA          CLOUDY    35  32  87 E12G17    30.15F WCI  27
6HR MIN TEMP:  35; 6HR MAX TEMP:  43;

KALAMAZOO      CLOUDY    43  36  76 E10G16    30.08F
6HR MIN TEMP:  43; 6HR MAX TEMP:  52; 6HR PCP:  0.02;

LUDINGTON      CLOUDY    39  26  58 E15G21    30.15F WCI  31
6HR MIN TEMP:  39; 6HR MAX TEMP:  46;

MARSHALL       CLOUDY    42  37  82 E9G16     30.11F
6HR MIN TEMP:  42; 6HR MAX TEMP:  49; 6HR PCP:  0.01;

MOUNT PLEASANT MOCLDY    36  26  67 NE10      30.20F WCI  28
6HR MIN TEMP:  35; 6HR MAX TEMP:  38;

MUSKEGON       CLOUDY    39  31  72 E16       30.13F WCI  30
6HR MIN TEMP:  39; 6HR MAX TEMP:  52; 6HR PCP:  0.01;

SOUTH HAVEN    LGT RAIN  42  38  84 E13G21    30.05F
$$
MIZ016>042-300700-
NORTHERN LOWER MICHIGAN

CITY           SKY/WX    TMP DP  RH WIND       PRES   REMARKS
ALPENA         CLOUDY    35  29  78 E8        30.28F WCI  29
6HR MIN TEMP:  32; 6HR MAX TEMP:  35;

BEAVER ISLAND  MOCLDY    35  24  63 E10       30.23F WCI  28
6HR MIN TEMP:  34; 6HR MAX TEMP:  36;

BELLAIRE       CLOUDY    37  20  50 SE7       30.22F WCI  31
6HR MIN TEMP:  37; 6HR MAX TEMP:  46;

CADILLAC       CLOUDY    34  21  59 E13G18    30.17F WCI  25
CHARLEVOIX     CLOUDY    36  22  56 E6        30.25F WCI  31
6HR MIN TEMP:  36; 6HR MAX TEMP:  39;

FRANKFORT      CLOUDY    40  28  62 E6        30.17F
GAYLORD        CLOUDY    35  20  54 E9        30.21F WCI  28
6HR MIN TEMP:  35; 6HR MAX TEMP:  40;

HARBOR SPRINGS PTCLDY    34  22  62 E10       30.24F WCI  26
HOUGHTON LAKE  CLOUDY    34  22  61 E12       30.20F WCI  25
6HR MIN TEMP:  34; 6HR MAX TEMP:  40;

MANISTEE       CLOUDY    40  25  55 E7        30.17F
OSCODA         CLOUDY    37  28  72 E10       30.26F WCI  29
6HR MIN TEMP:  35; 6HR MAX TEMP:  37;

PELLSTON       PTCLDY    35  21  56 E7        30.26  WCI  29
6HR MIN TEMP:  34; 6HR MAX TEMP:  38;

ROGERS CITY    CLOUDY    34  28  80 E5        30.30S WCI  29
TRAVERSE CITY  CLOUDY    39  20  46 SE9       30.20F WCI  33
6HR MIN TEMP:  38; 6HR MAX TEMP:  43;

$$
MIZ007>008-015-300700-
EASTERN UPPER MICHIGAN

CITY           SKY/WX    TMP DP  RH WIND       PRES   REMARKS
KINROSS        CLOUDY    33  23  66 E7        30.28F WCI  27
6HR MIN TEMP:  32; 6HR MAX TEMP:  36;

MACKINAC ISLAN CLOUDY    32  30  90 E8        30.27S WCI  25
6HR MIN TEMP:  32; 6HR MAX TEMP:  36;

NEWBERRY       MOCLDY    31  24  73 SE6       30.25S WCI  25
6HR MIN TEMP:  30; 6HR MAX TEMP:  36;

S. S. MARIE    CLOUDY    33  25  72 E3        30.28F
6HR MIN TEMP:  33; 6HR MAX TEMP:  40;

MUNISING         N/A     31  29  92 CALM      30.21F
6HR MIN TEMP:  31; 6HR MAX TEMP:  33;

$$
MIZ004>006-011>014-085-300700-
CENTRAL UPPER MICHIGAN

CITY           SKY/WX    TMP DP  RH WIND       PRES   REMARKS
MANISTIQUE     MOCLDY    34  27  76 E7        30.22F WCI  28
6HR MIN TEMP:  34; 6HR MAX TEMP:  37;

ESCANABA       CLOUDY    35  28  75 E10       30.19F WCI  27
6HR MIN TEMP:  35; 6HR MAX TEMP:  38;

MENOMINEE      CLOUDY    34  27  75 NE7       30.17  WCI  28
6HR MIN TEMP:  34; 6HR MAX TEMP:  37;

SAWYER-GWINN   CLOUDY    32  26  78 E5        30.19F WCI  27
6HR MIN TEMP:  29; 6HR MAX TEMP:  32;

$$
MIZ001>003-009>011-084-300700-
WESTERN UPPER MICHIGAN

CITY           SKY/WX    TMP DP  RH WIND       PRES   REMARKS
IRON MOUNTAIN  CLOUDY    34  23  64 NE3       30.16F
6HR MIN TEMP:  34; 6HR MAX TEMP:  42;

HOUGHTON       CLOUDY    31  27  85 E12       30.18F WCI  22
6HR MIN TEMP:  31; 6HR MAX TEMP:  31;

COPPER HARBOR    N/A     33  29  85 VRB6      30.21F WCI  28
6HR MIN TEMP:  32; 6HR MAX TEMP:  33;

IRONWOOD       CLOUDY    37  28  70 E5        30.13F WCI  33
6HR MIN TEMP:  36; 6HR MAX TEMP:  47;

$$

ABBREVIATIONS USED IN REMARKS
   TC - TEMPERATURE IN CELSIUS
  WCI - WIND CHILL INDEX
   HX - HEAT INDEX
  VSB - VISIBILITY




USA.gov is the U.S. government's official web portal to all federal, state and local government web resources and services.